Precipitable_Water
0.21 0.15 0.12 0.12 0.13 0.16 0.19 0.21 0.23 0.26 0.25 0.25 0.27 0.25 0.25 0.25 0.24 0.25 0.24 0.22 0.21 0.20 0.20 0.20 0.19 0.20 0.23 0.30 0.44 0.54 0.61 0.58 0.55 0.53 0.56 0.61 0.64 0.64 0.65 0.68 0.75 0.82 0.88 0.97 1.02 1.07 1.07 1.06 1.07 1.02 1.06 1.07 1.04 0.96 1.00 1.07 1.07 1.03 0.95 0.91 0.83 0.86 0.84 0.78 0.74 0.72 0.70 0.68 0.69 0.72 0.70 0.69 0.75 0.78 0.81 0.78 0.75 0.74 0.76 0.75 0.70 0.70 0.73 0.79 0.86 0.90
0.22 0.15 0.14 0.19 0.21 0.22 0.25 0.29 0.32 0.33 0.31 0.27 0.27 0.26 0.25 0.25 0.23 0.26 0.27 0.27 0.25 0.21 0.21 0.24 0.23 0.24 0.25 0.28 0.31 0.50 0.59 0.54 0.50 0.52 0.56 0.59 0.61 0.60 0.58 0.63 0.70 0.81 0.93 0.96 0.97 1.00 1.01 1.03 1.00 1.01 1.02 1.04 0.98 0.98 1.01 1.00 0.99 0.98 0.89 0.75 0.75 0.81 0.77 0.73 0.69 0.68 0.69 0.69 0.68 0.69 0.71 0.72 0.73 0.70 0.68 0.67 0.70 0.74 0.74 0.65 0.64 0.67 0.65 0.69 0.70 0.72
0.17 0.15 0.18 0.23 0.25 0.26 0.27 0.31 0.33 0.30 0.28 0.27 0.25 0.26 0.25 0.24 0.27 0.25 0.28 0.30 0.29 0.25 0.23 0.27 0.25 0.25 0.26 0.28 0.34 0.42 0.45 0.50 0.51 0.50 0.53 0.55 0.56 0.56 0.57 0.60 0.66 0.73 0.76 0.85 0.93 0.99 0.98 0.99 0.99 1.01 1.06 1.11 1.01 0.98 1.00 1.02 0.95 0.90 0.81 0.72 0.72 0.74 0.71 0.71 0.69 0.64 0.63 0.71 0.77 0.76 0.76 0.75 0.74 0.78 0.76 0.72 0.71 0.70 0.63 0.55 0.58 0.59 0.58 0.64 0.65 0.67
0.17 0.21 0.25 0.27 0.28 0.26 0.26 0.28 0.28 0.27 0.27 0.25 0.24 0.24 0.23 0.25 0.24 0.22 0.25 0.31 0.32 0.28 0.27 0.28 0.25 0.26 0.29 0.30 0.33 0.44 0.47 0.50 0.56 0.57 0.57 0.55 0.51 0.54 0.55 0.58 0.62 0.65 0.68 0.70 0.79 0.84 0.90 0.93 0.98 1.06 1.10 1.14 1.02 1.01 1.01 0.98 0.87 0.81 0.76 0.75 0.72 0.72 0.73 0.73 0.72 0.72 0.75 0.78 0.80 0.84 0.82 0.80 0.74 0.69 0.72 0.71 0.67 0.61 0.54 0.54 0.62 0.63 0.64 0.64 0.62 0.62
0.19 0.23 0.28 0.29 0.29 0.28 0.25 0.28 0.26 0.25 0.23 0.25 0.25 0.24 0.25 0.25 0.25 0.24 0.25 0.32 0.34 0.33 0.33 0.29 0.26 0.24 0.27 0.27 0.29 0.39 0.52 0.53 0.58 0.62 0.58 0.54 0.51 0.53 0.58 0.60 0.60 0.60 0.64 0.66 0.71 0.79 0.82 0.87 0.95 1.05 1.11 1.10 0.98 1.00 0.98 0.92 0.81 0.75 0.76 0.75 0.73 0.73 0.73 0.74 0.78 0.81 0.81 0.82 0.81 0.82 0.82 0.80 0.76 0.71 0.66 0.57 0.52 0.54 0.56 0.56 0.57 0.61 0.67 0.66 0.64 0.66
0.22 0.25 0.28 0.27 0.28 0.28 0.27 0.25 0.26 0.24 0.21 0.22 0.24 0.24 0.26 0.29 0.27 0.28 0.29 0.29 0.27 0.27 0.30 0.28 0.21 0.22 0.25 0.28 0.28 0.32 0.39 0.47 0.54 0.52 0.49 0.48 0.53 0.59 0.57 0.57 0.64 0.66 0.68 0.66 0.67 0.73 0.82 0.89 1.00 1.06 1.07 1.05 1.01 0.99 0.99 0.90 0.79 0.77 0.80 0.79 0.78 0.77 0.77 0.79 0.84 0.84 0.81 0.78 0.74 0.73 0.70 0.67 0.64 0.58 0.51 0.45 0.46 0.51 0.54 0.55 0.61 0.62 0.65 0.65 0.64 0.66
0.22 0.26 0.26 0.26 0.28 0.27 0.27 0.25 0.27 0.25 0.21 0.19 0.20 0.27 0.29 0.30 0.30 0.29 0.28 0.27 0.23 0.21 0.30 0.32 0.21 0.20 0.26 0.25 0.29 0.31 0.34 0.40 0.51 0.50 0.49 0.51 0.55 0.57 0.57 0.58 0.59 0.63 0.70 0.79 0.82 0.85 0.89 0.94 0.95 0.99 1.02 1.04 1.01 1.02 1.01 0.91 0.79 0.79 0.81 0.82 0.78 0.80 0.82 0.83 0.83 0.84 0.81 0.76 0.75 0.71 0.69 0.67 0.60 0.54 0.53 0.55 0.56 0.58 0.59 0.60 0.59 0.60 0.62 0.63 0.61 0.60
0.26 0.28 0.27 0.28 0.29 0.28 0.26 0.24 0.26 0.25 0.22 0.18 0.22 0.21 0.26 0.28 0.28 0.29 0.28 0.27 0.25 0.29 0.29 0.30 0.27 0.20 0.20 0.24 0.30 0.32 0.31 0.37 0.46 0.46 0.52 0.53 0.56 0.57 0.61 0.63 0.65 0.68 0.72 0.75 0.80 0.84 0.89 0.92 0.92 0.93 1.00 1.00 0.99 1.05 1.06 0.96 0.84 0.79 0.82 0.84 0.79 0.84 0.85 0.83 0.83 0.83 0.80 0.75 0.75 0.74 0.73 0.69 0.61 0.55 0.56 0.59 0.60 0.62 0.60 0.56 0.55 0.55 0.56 0.57 0.57 0.53
0.26 0.26 0.28 0.27 0.28 0.28 0.26 0.26 0.27 0.27 0.22 0.21 0.27 0.28 0.27 0.29 0.30 0.29 0.28 0.27 0.27 0.24 0.21 0.24 0.28 0.20 0.19 0.25 0.30 0.32 0.28 0.30 0.31 0.37 0.45 0.53 0.56 0.59 0.61 0.65 0.67 0.69 0.73 0.77 0.80 0.84 0.85 0.87 0.94 1.00 1.03 1.07 1.07 1.07 1.08 1.04 0.94 0.87 0.85 0.85 0.81 0.85 0.87 0.80 0.81 0.81 0.81 0.79 0.77 0.75 0.73 0.70 0.64 0.62 0.63 0.64 0.64 0.60 0.59 0.52 0.50 0.49 0.49 0.50 0.49 0.48
0.29 0.32 0.32 0.30 0.28 0.25 0.28 0.28 0.28 0.28 0.22 0.26 0.27 0.29 0.28 0.29 0.29 0.29 0.27 0.26 0.26 0.23 0.20 0.23 0.27 0.20 0.19 0.24 0.27 0.30 0.28 0.28 0.30 0.32 0.36 0.49 0.57 0.60 0.61 0.66 0.71 0.75 0.78 0.80 0.81 0.82 0.85 0.89 0.93 0.97 1.01 1.04 1.04 1.09 1.11 1.09 1.09 1.00 0.93 0.85 0.78 0.82 0.87 0.81 0.81 0.81 0.80 0.81 0.81 0.76 0.72 0.65 0.63 0.66 0.66 0.66 0.61 0.60 0.58 0.50 0.49 0.49 0.47 0.45 0.44 0.46
0.30 0.32 0.37 0.31 0.28 0.29 0.29 0.30 0.28 0.26 0.25 0.29 0.28 0.26 0.26 0.25 0.24 0.26 0.26 0.25 0.23 0.19 0.21 0.26 0.28 0.25 0.19 0.22 0.26 0.27 0.30 0.31 0.33 0.36 0.40 0.45 0.54 0.62 0.64 0.67 0.71 0.73 0.76 0.78 0.80 0.82 0.87 0.94 0.95 0.96 0.94 0.98 1.05 1.08 1.07 1.05 1.07 1.10 1.03 0.88 0.75 0.80 0.86 0.83 0.83 0.82 0.81 0.81 0.79 0.75 0.69 0.63 0.64 0.65 0.64 0.62 0.58 0.58 0.57 0.51 0.49 0.48 0.47 0.45 0.41 0.42
0.29 0.29 0.29 0.30 0.31 0.29 0.28 0.26 0.27 0.28 0.27 0.24 0.24 0.23 0.23 0.23 0.24 0.22 0.21 0.23 0.17 0.16 0.22 0.28 0.27 0.28 0.19 0.23 0.28 0.32 0.35 0.36 0.36 0.36 0.38 0.45 0.52 0.57 0.63 0.69 0.75 0.77 0.75 0.74 0.76 0.81 0.86 0.89 0.91 0.91 0.90 0.95 0.99 1.00 1.00 1.02 1.06 1.06 1.05 0.98 0.83 0.79 0.84 0.84 0.86 0.86 0.85 0.82 0.78 0.74 0.69 0.67 0.68 0.66 0.63 0.59 0.55 0.57 0.55 0.53 0.49 0.50 0.48 0.45 0.45 0.44
0.26 0.27 0.29 0.29 0.32 0.28 0.27 0.23 0.24 0.25 0.26 0.25 0.25 0.23 0.20 0.19 0.19 0.17 0.21 0.17 0.17 0.18 0.26 0.29 0.29 0.25 0.24 0.29 0.33 0.36 0.37 0.38 0.40 0.40 0.40 0.45 0.55 0.60 0.64 0.70 0.75 0.76 0.74 0.74 0.76 0.78 0.82 0.81 0.80 0.80 0.83 0.87 0.87 0.88 0.92 0.99 1.00 1.02 1.04 1.03 0.96 0.88 0.86 0.85 0.87 0.87 0.88 0.82 0.76 0.72 0.74 0.74 0.73 0.69 0.64 0.60 0.57 0.60 0.58 0.54 0.50 0.48 0.45 0.46 0.44 0.44
0.24 0.28 0.29 0.30 0.29 0.29 0.26 0.21 0.21 0.21 0.24 0.23 0.22 0.21 0.17 0.15 0.15 0.14 0.18 0.22 0.22 0.26 0.30 0.29 0.31 0.24 0.31 0.34 0.36 0.35 0.38 0.44 0.45 0.46 0.47 0.49 0.54 0.61 0.68 0.72 0.73 0.75 0.75 0.75 0.76 0.77 0.78 0.79 0.78 0.80 0.82 0.83 0.83 0.85 0.89 0.94 0.98 1.05 1.13 1.19 1.22 1.13 1.07 0.92 0.87 0.89 0.87 0.80 0.74 0.76 0.82 0.82 0.77 0.72 0.67 0.61 0.59 0.61 0.61 0.58 0.52 0.49 0.47 0.46 0.46 0.46
0.19 0.20 0.24 0.27 0.25 0.30 0.28 0.26 0.25 0.23 0.22 0.22 0.23 0.21 0.19 0.18 0.16 0.13 0.15 0.15 0.18 0.21 0.26 0.31 0.25 0.23 0.24 0.31 0.41 0.43 0.46 0.48 0.49 0.50 0.53 0.58 0.63 0.69 0.73 0.76 0.76 0.76 0.77 0.80 0.80 0.81 0.81 0.80 0.80 0.79 0.79 0.79 0.78 0.81 0.85 0.90 1.02 1.06 1.05 1.11 1.07 1.14 1.17 1.08 0.94 0.90 0.85 0.77 0.79 0.84 0.91 0.91 0.88 0.83 0.74 0.65 0.64 0.62 0.63 0.63 0.59 0.56 0.54 0.50 0.49 0.48
0.22 0.22 0.29 0.33 0.33 0.32 0.29 0.31 0.28 0.23 0.22 0.24 0.25 0.24 0.20 0.19 0.23 0.17 0.21 0.20 0.20 0.20 0.20 0.23 0.23 0.29 0.28 0.42 0.45 0.47 0.52 0.56 0.55 0.54 0.55 0.58 0.63 0.67 0.67 0.69 0.72 0.74 0.76 0.81 0.83 0.85 0.85 0.86 0.86 0.82 0.75 0.72 0.76 0.81 0.86 0.95 0.98 1.00 1.03 1.09 1.11 1.08 1.12 1.16 1.10 0.97 0.87 0.80 0.83 0.86 0.91 0.93 0.93 0.90 0.83 0.75 0.71 0.67 0.66 0.65 0.64 0.62 0.63 0.61 0.58 0.56
0.24 0.22 0.28 0.29 0.33 0.32 0.32 0.30 0.26 0.25 0.18 0.23 0.23 0.20 0.22 0.30 0.26 0.23 0.24 0.26 0.24 0.22 0.19 0.26 0.24 0.28 0.37 0.37 0.43 0.45 0.48 0.51 0.55 0.57 0.58 0.59 0.63 0.64 0.66 0.72 0.75 0.76 0.78 0.81 0.80 0.79 0.80 0.82 0.82 0.78 0.72 0.71 0.75 0.80 0.86 0.95 0.95 0.92 1.01 1.05 0.96 1.05 1.04 1.03 1.12 1.16 1.01 0.83 0.82 0.86 0.92 0.95 0.94 0.92 0.85 0.81 0.78 0.71 0.70 0.71 0.71 0.69 0.68 0.70 0.69 0.67
0.23 0.23 0.28 0.27 0.27 0.30 0.35 0.32 0.28 0.26 0.25 0.23 0.20 0.21 0.24 0.30 0.30 0.24 0.18 0.22 0.20 0.17 0.21 0.24 0.22 0.25 0.26 0.25 0.40 0.40 0.41 0.47 0.53 0.55 0.56 0.59 0.61 0.62 0.69 0.72 0.74 0.76 0.77 0.79 0.80 0.79 0.78 0.78 0.76 0.72 0.71 0.71 0.73 0.77 0.84 0.89 0.97 0.98 0.98 0.94 0.96 0.93 0.93 1.01 1.05 1.10 1.06 0.89 0.84 0.89 0.92 0.93 0.92 0.93 0.93 0.88 0.85 0.81 0.77 0.77 0.78 0.78 0.75 0.74 0.74 0.74
0.28 0.22 0.26 0.28 0.27 0.29 0.31 0.28 0.26 0.27 0.27 0.23 0.22 0.26 0.20 0.19 0.18 0.22 0.19 0.15 0.15 0.16 0.18 0.22 0.26 0.27 0.28 0.28 0.36 0.40 0.40 0.45 0.52 0.59 0.59 0.59 0.60 0.61 0.64 0.71 0.74 0.76 0.77 0.77 0.75 0.75 0.73 0.72 0.67 0.66 0.67 0.71 0.75 0.80 0.84 0.88 0.90 0.94 0.95 0.95 0.95 0.93 0.96 1.00 1.05 1.03 1.03 0.92 0.87 0.92 0.94 0.93 0.93 0.94 0.96 0.96 0.93 0.89 0.85 0.83 0.83 0.83 0.84 0.84 0.84 0.82
0.28 0.22 0.23 0.28 0.26 0.29 0.28 0.26 0.22 0.24 0.27 0.27 0.26 0.23 0.23 0.19 0.17 0.16 0.17 0.20 0.18 0.16 0.16 0.20 0.24 0.22 0.32 0.33 0.37 0.39 0.43 0.47 0.52 0.55 0.57 0.60 0.61 0.62 0.64 0.66 0.68 0.67 0.69 0.71 0.71 0.72 0.68 0.66 0.68 0.68 0.67 0.68 0.71 0.76 0.82 0.87 0.89 0.88 0.94 0.96 0.96 0.99 1.00 1.01 1.00 1.03 0.99 0.93 0.89 0.92 0.94 0.93 0.94 0.97 0.99 1.01 0.97 0.91 0.90 0.90 0.88 0.88 0.87 0.86 0.90 0.92
0.25 0.28 0.20 0.24 0.28 0.28 0.23 0.25 0.23 0.24 0.23 0.24 0.23 0.22 0.23 0.23 0.27 0.22 0.23 0.20 0.17 0.17 0.16 0.17 0.17 0.25 0.32 0.40 0.39 0.40 0.46 0.52 0.52 0.51 0.56 0.60 0.62 0.64 0.65 0.65 0.65 0.65 0.62 0.60 0.61 0.62 0.64 0.66 0.68 0.71 0.74 0.74 0.75 0.77 0.81 0.85 0.87 0.85 0.89 0.90 0.95 0.91 0.93 0.94 1.00 1.02 1.00 0.93 0.89 0.88 0.88 0.89 0.92 0.97 0.99 0.99 1.03 0.96 0.93 0.95 0.94 0.93 0.93 0.94 0.92 0.94
0.25 0.25 0.21 0.24 0.23 0.23 0.25 0.28 0.27 0.25 0.24 0.23 0.21 0.22 0.23 0.21 0.21 0.17 0.16 0.24 0.22 0.17 0.16 0.15 0.15 0.25 0.35 0.43 0.42 0.42 0.46 0.48 0.52 0.53 0.57 0.61 0.65 0.65 0.64 0.63 0.63 0.64 0.65 0.61 0.61 0.62 0.62 0.65 0.68 0.72 0.75 0.76 0.76 0.77 0.78 0.82 0.84 0.84 0.83 0.84 0.87 0.90 0.92 0.95 0.99 1.01 1.01 0.94 0.87 0.88 0.90 0.89 0.91 0.92 0.92 0.92 1.02 0.97 0.96 0.98 0.99 0.99 0.98 0.96 0.96 0.97
0.30 0.28 0.24 0.21 0.22 0.23 0.26 0.28 0.29 0.27 0.25 0.24 0.23 0.23 0.26 0.25 0.23 0.20 0.16 0.21 0.23 0.23 0.23 0.22 0.18 0.23 0.37 0.42 0.44 0.42 0.44 0.48 0.50 0.51 0.53 0.57 0.61 0.64 0.64 0.64 0.64 0.65 0.64 0.62 0.60 0.61 0.61 0.62 0.65 0.68 0.72 0.75 0.77 0.78 0.80 0.82 0.83 0.84 0.84 0.83 0.84 0.85 0.87 0.93 0.95 0.97 1.01 0.95 0.87 0.85 0.93 0.96 0.94 0.94 0.95 0.97 1.00 1.00 1.02 1.03 1.04 1.07 1.01 1.00 1.00 1.02
0.36 0.25 0.22 0.23 0.24 0.24 0.26 0.28 0.27 0.26 0.24 0.23 0.23 0.25 0.25 0.23 0.24 0.22 0.20 0.22 0.20 0.25 0.22 0.23 0.19 0.25 0.37 0.42 0.42 0.42 0.44 0.49 0.53 0.53 0.54 0.58 0.61 0.63 0.61 0.62 0.62 0.62 0.63 0.63 0.63 0.62 0.62 0.63 0.64 0.65 0.67 0.70 0.73 0.75 0.77 0.79 0.82 0.84 0.84 0.83 0.83 0.84 0.85 0.87 0.86 0.91 0.93 0.92 0.89 0.91 0.91 0.93 0.95 0.93 0.96 0.97 1.01 1.03 1.04 1.06 1.04 1.08 1.06 1.04 1.04 1.03
0.25 0.27 0.22 0.20 0.19 0.20 0.20 0.21 0.20 0.22 0.23 0.22 0.22 0.23 0.24 0.25 0.24 0.23 0.22 0.24 0.18 0.21 0.20 0.19 0.16 0.25 0.37 0.45 0.45 0.45 0.44 0.45 0.48 0.54 0.56 0.54 0.58 0.58 0.59 0.59 0.60 0.62 0.63 0.63 0.63 0.62 0.62 0.60 0.59 0.59 0.62 0.65 0.68 0.71 0.74 0.77 0.79 0.82 0.82 0.81 0.80 0.82 0.86 0.87 0.90 0.93 0.94 0.92 0.89 0.91 0.94 0.95 0.95 0.96 0.99 0.98 0.98 0.99 1.01 1.02 1.02 1.06 1.05 1.05 1.04 1.06
0.28 0.27 0.23 0.18 0.15 0.14 0.12 0.12 0.13 0.14 0.16 0.21 0.23 0.22 0.23 0.22 0.21 0.19 0.16 0.18 0.15 0.20 0.20 0.19 0.20 0.28 0.34 0.39 0.41 0.43 0.42 0.43 0.49 0.51 0.54 0.56 0.55 0.55 0.56 0.56 0.57 0.59 0.61 0.63 0.63 0.63 0.61 0.59 0.57 0.56 0.56 0.58 0.61 0.63 0.66 0.69 0.72 0.74 0.77 0.81 0.86 0.87 0.89 0.91 0.93 0.95 0.94 0.93 0.93 0.93 0.93 0.95 0.95 0.94 0.96 0.96 0.97 0.97 0.98 0.98 0.97 1.00 1.10 1.09 1.03 1.03
0.27 0.28 0.25 0.23 0.20 0.17 0.19 0.19 0.22 0.21 0.18 0.15 0.17 0.19 0.22 0.23 0.24 0.21 0.20 0.17 0.14 0.19 0.17 0.22 0.23 0.27 0.29 0.33 0.35 0.38 0.39 0.39 0.41 0.45 0.46 0.48 0.51 0.53 0.54 0.54 0.55 0.57 0.58 0.59 0.60 0.60 0.59 0.58 0.57 0.56 0.56 0.55 0.54 0.56 0.58 0.59 0.60 0.63 0.66 0.71 0.77 0.84 0.89 0.91 0.91 0.92 0.93 0.95 0.93 0.92 0.88 0.88 0.91 0.93 0.96 0.98 0.98 1.00 0.99 0.97 0.98 1.00 1.00 1.06 1.05 1.00
0.27 0.23 0.25 0.24 0.23 0.23 0.23 0.22 0.22 0.20 0.18 0.20 0.19 0.19 0.21 0.22 0.22 0.21 0.18 0.17 0.21 0.17 0.16 0.23 0.27 0.26 0.28 0.31 0.33 0.35 0.38 0.40 0.41 0.42 0.44 0.46 0.48 0.49 0.51 0.52 0.54 0.56 0.58 0.60 0.60 0.58 0.57 0.57 0.56 0.54 0.51 0.49 0.48 0.50 0.51 0.54 0.56 0.56 0.57 0.57 0.62 0.69 0.75 0.79 0.82 0.83 0.86 0.88 0.90 0.91 0.92 0.92 0.95 0.96 0.96 0.97 0.98 1.01 1.04 1.03 1.01 1.00 1.03 1.08 1.02 1.01
0.24 0.21 0.24 0.23 0.23 0.24 0.25 0.23 0.22 0.21 0.19 0.18 0.20 0.21 0.20 0.21 0.21 0.20 0.21 0.23 0.22 0.19 0.19 0.25 0.26 0.26 0.29 0.31 0.33 0.34 0.36 0.37 0.42 0.45 0.47 0.49 0.50 0.51 0.50 0.50 0.51 0.52 0.53 0.53 0.55 0.55 0.55 0.54 0.54 0.53 0.53 0.52 0.49 0.48 0.48 0.48 0.51 0.55 0.54 0.53 0.53 0.55 0.58 0.67 0.72 0.71 0.72 0.73 0.72 0.72 0.72 0.75 0.82 0.88 0.92 0.89 0.88 0.91 0.96 1.00 1.00 1.00 1.00 1.01 1.00 1.01
0.22 0.20 0.21 0.21 0.21 0.21 0.22 0.21 0.22 0.18 0.17 0.17 0.18 0.19 0.20 0.21 0.21 0.22 0.23 0.24 0.24 0.23 0.24 0.27 0.27 0.27 0.30 0.31 0.33 0.34 0.37 0.38 0.40 0.45 0.48 0.47 0.46 0.48 0.50 0.49 0.47 0.47 0.47 0.49 0.52 0.53 0.53 0.54 0.54 0.55 0.55 0.54 0.54 0.52 0.50 0.47 0.46 0.45 0.48 0.50 0.49 0.49 0.49 0.50 0.50 0.55 0.61 0.60 0.58 0.56 0.59 0.60 0.61 0.60 0.63 0.66 0.69 0.72 0.75 0.76 0.78 0.80 0.82 0.82 0.83 0.84
0.21 0.20 0.23 0.22 0.19 0.19 0.21 0.22 0.21 0.19 0.18 0.16 0.19 0.19 0.19 0.19 0.20 0.22 0.23 0.24 0.25 0.25 0.26 0.26 0.26 0.26 0.33 0.36 0.35 0.37 0.37 0.38 0.39 0.40 0.42 0.44 0.47 0.47 0.47 0.48 0.48 0.50 0.51 0.51 0.51 0.51 0.52 0.52 0.52 0.53 0.54 0.53 0.53 0.52 0.51 0.50 0.48 0.46 0.45 0.44 0.45 0.45 0.46 0.46 0.45 0.46 0.47 0.47 0.47 0.47 0.50 0.54 0.55 0.56 0.56 0.57 0.60 0.61 0.62 0.63 0.65 0.66 0.68 0.70 0.72 0.74
0.25 0.23 0.25 0.22 0.16 0.17 0.19 0.19 0.20 0.20 0.20 0.19 0.19 0.19 0.20 0.20 0.19 0.21 0.19 0.23 0.20 0.20 0.23 0.24 0.24 0.25 0.32 0.35 0.36 0.37 0.37 0.35 0.35 0.37 0.39 0.42 0.43 0.45 0.45 0.46 0.47 0.50 0.52 0.54 0.56 0.56 0.55 0.53 0.52 0.52 0.51 0.52 0.53 0.52 0.51 0.51 0.50 0.48 0.47 0.46 0.44 0.44 0.45 0.45 0.44 0.45 0.46 0.46 0.46 0.45 0.45 0.45 0.47 0.47 0.48 0.49 0.50 0.52 0.54 0.55 0.56 0.57 0.58 0.59 0.59 0.62
0.27 0.24 0.22 0.21 0.16 0.16 0.20 0.21 0.20 0.20 0.19 0.17 0.19 0.22 0.24 0.25 0.25 0.25 0.26 0.27 0.26 0.25 0.22 0.20 0.22 0.29 0.33 0.37 0.34 0.34 0.35 0.36 0.37 0.37 0.37 0.39 0.41 0.41 0.42 0.43 0.46 0.49 0.56 0.58 0.57 0.58 0.59 0.58 0.56 0.54 0.54 0.53 0.53 0.52 0.54 0.54 0.53 0.51 0.49 0.46 0.45 0.45 0.44 0.43 0.41 0.40 0.42 0.43 0.44 0.44 0.44 0.44 0.44 0.44 0.46 0.47 0.48 0.49 0.49 0.48 0.48 0.48 0.48 0.48 0.51 0.54
0.28 0.26 0.23 0.25 0.17 0.19 0.21 0.21 0.20 0.17 0.12 0.14 0.27 0.31 0.30 0.26 0.26 0.24 0.25 0.28 0.30 0.29 0.27 0.29 0.29 0.32 0.33 0.33 0.32 0.34 0.34 0.35 0.37 0.40 0.42 0.41 0.41 0.42 0.43 0.44 0.46 0.50 0.55 0.58 0.59 0.58 0.59 0.60 0.60 0.59 0.58 0.58 0.57 0.57 0.57 0.57 0.56 0.54 0.54 0.53 0.51 0.49 0.46 0.45 0.46 0.45 0.45 0.44 0.43 0.44 0.44 0.43 0.41 0.41 0.43 0.44 0.44 0.44 0.43 0.42 0.42 0.43 0.43 0.43 0.44 0.43
0.25 0.25 0.23 0.24 0.19 0.18 0.20 0.20 0.16 0.12 0.12 0.25 0.30 0.31 0.30 0.29 0.29 0.27 0.28 0.29 0.30 0.31 0.31 0.30 0.31 0.31 0.34 0.35 0.35 0.35 0.36 0.38 0.39 0.39 0.41 0.44 0.46 0.45 0.45 0.46 0.47 0.50 0.53 0.56 0.58 0.59 0.59 0.59 0.60 0.60 0.58 0.58 0.57 0.57 0.57 0.56 0.54 0.53 0.54 0.54 0.53 0.52 0.49 0.47 0.48 0.46 0.47 0.46 0.46 0.45 0.43 0.42 0.41 0.42 0.44 0.45 0.45 0.44 0.42 0.40 0.38 0.35 0.35 0.36 0.36 0.37
0.23 0.22 0.22 0.21 0.20 0.20 0.16 0.16 0.10 0.10 0.19 0.25 0.27 0.29 0.32 0.29 0.29 0.26 0.25 0.28 0.29 0.30 0.30 0.28 0.30 0.32 0.33 0.35 0.36 0.37 0.37 0.37 0.38 0.39 0.40 0.42 0.43 0.44 0.44 0.45 0.48 0.50 0.52 0.55 0.57 0.59 0.61 0.61 0.60 0.60 0.59 0.59 0.58 0.56 0.56 0.56 0.57 0.55 0.56 0.56 0.54 0.53 0.51 0.50 0.49 0.49 0.49 0.48 0.48 0.49 0.47 0.46 0.46 0.48 0.50 0.51 0.50 0.47 0.44 0.41 0.38 0.35 0.36 0.36 0.37 0.39
0.22 0.22 0.20 0.16 0.20 0.13 0.15 0.15 0.14 0.22 0.21 0.23 0.23 0.25 0.27 0.25 0.26 0.23 0.19 0.23 0.28 0.30 0.29 0.28 0.29 0.30 0.32 0.34 0.37 0.38 0.39 0.38 0.35 0.36 0.40 0.41 0.42 0.44 0.44 0.45 0.48 0.49 0.52 0.55 0.58 0.59 0.62 0.64 0.65 0.65 0.62 0.62 0.60 0.58 0.57 0.57 0.58 0.57 0.56 0.56 0.55 0.55 0.55 0.54 0.51 0.50 0.48 0.48 0.49 0.49 0.49 0.48 0.47 0.47 0.48 0.50 0.49 0.48 0.47 0.45 0.43 0.42 0.44 0.40 0.40 0.38
0.22 0.17 0.20 0.16 0.17 0.18 0.15 0.14 0.15 0.16 0.12 0.19 0.26 0.31 0.34 0.34 0.33 0.33 0.27 0.25 0.31 0.32 0.33 0.31 0.29 0.30 0.31 0.33 0.35 0.37 0.37 0.32 0.30 0.32 0.38 0.40 0.42 0.42 0.43 0.44 0.45 0.46 0.47 0.47 0.50 0.56 0.59 0.60 0.61 0.62 0.63 0.62 0.64 0.62 0.59 0.58 0.58 0.57 0.56 0.56 0.56 0.56 0.56 0.54 0.53 0.52 0.51 0.51 0.51 0.51 0.51 0.51 0.49 0.48 0.47 0.47 0.46 0.46 0.47 0.48 0.49 0.48 0.49 0.46 0.45 0.44
0.25 0.24 0.23 0.19 0.19 0.20 0.18 0.15 0.15 0.14 0.17 0.26 0.28 0.32 0.35 0.36 0.34 0.37 0.28 0.24 0.32 0.34 0.34 0.33 0.32 0.32 0.33 0.33 0.34 0.35 0.32 0.28 0.28 0.32 0.38 0.39 0.40 0.41 0.40 0.41 0.42 0.43 0.45 0.45 0.45 0.45 0.47 0.50 0.54 0.55 0.55 0.58 0.58 0.58 0.61 0.59 0.57 0.55 0.54 0.55 0.54 0.55 0.52 0.51 0.50 0.50 0.50 0.51 0.53 0.53 0.52 0.51 0.50 0.48 0.46 0.46 0.47 0.48 0.47 0.47 0.46 0.46 0.48 0.46 0.46 0.46
0.26 0.26 0.24 0.21 0.21 0.21 0.20 0.18 0.18 0.22 0.23 0.29 0.33 0.35 0.37 0.38 0.37 0.32 0.20 0.22 0.32 0.35 0.35 0.34 0.33 0.33 0.34 0.35 0.35 0.34 0.31 0.28 0.29 0.33 0.39 0.40 0.41 0.42 0.41 0.40 0.41 0.41 0.41 0.42 0.43 0.44 0.44 0.46 0.47 0.50 0.49 0.49 0.50 0.54 0.53 0.56 0.55 0.53 0.53 0.56 0.56 0.53 0.52 0.50 0.49 0.49 0.50 0.50 0.51 0.51 0.50 0.48 0.46 0.46 0.46 0.46 0.46 0.47 0.48 0.50 0.50 0.50 0.51 0.53 0.53 0.51
0.25 0.26 0.26 0.23 0.24 0.25 0.23 0.23 0.25 0.27 0.33 0.36 0.36 0.37 0.38 0.39 0.34 0.23 0.19 0.25 0.33 0.33 0.33 0.33 0.33 0.34 0.34 0.34 0.34 0.31 0.32 0.34 0.34 0.36 0.38 0.39 0.39 0.40 0.41 0.42 0.42 0.42 0.41 0.41 0.42 0.43 0.44 0.45 0.44 0.44 0.45 0.45 0.46 0.49 0.50 0.49 0.47 0.47 0.48 0.49 0.49 0.49 0.49 0.50 0.50 0.49 0.48 0.47 0.47 0.47 0.48 0.49 0.49 0.48 0.48 0.47 0.47 0.48 0.48 0.48 0.47 0.48 0.48 0.49 0.51 0.50
0.25 0.26 0.28 0.28 0.25 0.24 0.25 0.23 0.24 0.28 0.35 0.37 0.37 0.37 0.37 0.32 0.23 0.22 0.31 0.36 0.35 0.32 0.33 0.34 0.33 0.33 0.33 0.33 0.33 0.33 0.34 0.35 0.36 0.36 0.36 0.37 0.38 0.38 0.39 0.39 0.40 0.41 0.42 0.41 0.41 0.41 0.41 0.41 0.41 0.42 0.42 0.43 0.44 0.44 0.44 0.43 0.42 0.43 0.45 0.45 0.45 0.46 0.48 0.49 0.48 0.48 0.47 0.47 0.47 0.48 0.49 0.50 0.50 0.50 0.49 0.50 0.50 0.50 0.49 0.50 0.50 0.48 0.48 0.50 0.49 0.48
0.23 0.22 0.22 0.23 0.26 0.26 0.25 0.22 0.21 0.18 0.30 0.35 0.34 0.32 0.33 0.25 0.27 0.35 0.37 0.36 0.36 0.35 0.35 0.34 0.34 0.34 0.34 0.33 0.34 0.34 0.35 0.35 0.35 0.35 0.36 0.37 0.37 0.38 0.39 0.39 0.38 0.38 0.38 0.39 0.40 0.41 0.40 0.40 0.40 0.40 0.41 0.43 0.43 0.43 0.42 0.41 0.40 0.41 0.41 0.41 0.42 0.44 0.46 0.47 0.47 0.47 0.47 0.48 0.48 0.48 0.49 0.50 0.50 0.51 0.52 0.52 0.51 0.49 0.47 0.47 0.46 0.47 0.48 0.48 0.49 0.50
0.26 0.21 0.22 0.23 0.26 0.20 0.21 0.19 0.20 0.27 0.30 0.32 0.31 0.25 0.29 0.31 0.33 0.34 0.33 0.31 0.34 0.34 0.34 0.34 0.34 0.35 0.35 0.34 0.34 0.33 0.34 0.34 0.34 0.35 0.35 0.36 0.36 0.37 0.37 0.37 0.37 0.37 0.37 0.38 0.38 0.38 0.39 0.39 0.40 0.41 0.42 0.42 0.42 0.42 0.42 0.41 0.40 0.40 0.40 0.41 0.44 0.45 0.45 0.46 0.46 0.46 0.47 0.48 0.49 0.50 0.50 0.51 0.51 0.51 0.51 0.50 0.49 0.49 0.48 0.49 0.50 0.50 0.49 0.49 0.47 0.46
0.26 0.22 0.24 0.20 0.26 0.23 0.22 0.25 0.29 0.30 0.30 0.31 0.30 0.30 0.31 0.32 0.33 0.32 0.31 0.30 0.30 0.31 0.34 0.32 0.32 0.33 0.34 0.33 0.33 0.32 0.32 0.32 0.32 0.34 0.33 0.33 0.34 0.34 0.34 0.34 0.34 0.34 0.34 0.34 0.35 0.38 0.38 0.38 0.37 0.38 0.39 0.40 0.39 0.39 0.39 0.40 0.39 0.39 0.39 0.42 0.44 0.43 0.43 0.44 0.45 0.45 0.44 0.44 0.46 0.47 0.48 0.49 0.49 0.49 0.49 0.49 0.49 0.46 0.47 0.47 0.48 0.47 0.49 0.50 0.48 0.46
0.27 0.26 0.27 0.24 0.23 0.27 0.29 0.29 0.30 0.30 0.30 0.31 0.32 0.33 0.31 0.31 0.33 0.32 0.31 0.30 0.31 0.32 0.33 0.32 0.33 0.33 0.33 0.34 0.31 0.30 0.30 0.30 0.29 0.29 0.30 0.31 0.31 0.32 0.33 0.33 0.33 0.33 0.33 0.33 0.33 0.34 0.35 0.37 0.37 0.37 0.36 0.36 0.38 0.39 0.39 0.40 0.41 0.39 0.39 0.42 0.43 0.43 0.43 0.43 0.43 0.42 0.42 0.42 0.43 0.44 0.45 0.44 0.45 0.46 0.46 0.46 0.45 0.44 0.44 0.43 0.43 0.43 0.43 0.43 0.43 0.42
0.24 0.26 0.24 0.21 0.24 0.21 0.18 0.25 0.25 0.26 0.29 0.29 0.30 0.31 0.32 0.33 0.32 0.33 0.32 0.32 0.32 0.33 0.33 0.34 0.32 0.32 0.32 0.31 0.29 0.28 0.27 0.28 0.27 0.27 0.28 0.28 0.28 0.28 0.28 0.27 0.28 0.28 0.29 0.28 0.30 0.31 0.31 0.31 0.31 0.32 0.34 0.34 0.37 0.38 0.40 0.41 0.41 0.41 0.42 0.42 0.43 0.43 0.42 0.42 0.42 0.41 0.41 0.42 0.42 0.43 0.43 0.43 0.43 0.43 0.45 0.44 0.43 0.43 0.43 0.43 0.42 0.41 0.39 0.38 0.38 0.37
0.20 0.27 0.22 0.23 0.22 0.20 0.21 0.26 0.27 0.28 0.29 0.30 0.29 0.28 0.27 0.30 0.32 0.33 0.33 0.33 0.32 0.32 0.32 0.32 0.31 0.29 0.30 0.27 0.27 0.26 0.26 0.27 0.26 0.26 0.26 0.27 0.27 0.28 0.29 0.29 0.29 0.30 0.31 0.32 0.31 0.31 0.30 0.30 0.30 0.30 0.30 0.32 0.35 0.37 0.37 0.39 0.40 0.42 0.42 0.42 0.42 0.42 0.42 0.41 0.41 0.41 0.41 0.42 0.43 0.43 0.44 0.43 0.43 0.42 0.41 0.40 0.39 0.39 0.41 0.43 0.44 0.43 0.42 0.41 0.40 0.39
0.23 0.24 0.18 0.22 0.20 0.23 0.25 0.26 0.27 0.26 0.27 0.28 0.29 0.30 0.31 0.31 0.31 0.30 0.31 0.30 0.30 0.29 0.29 0.29 0.30 0.28 0.28 0.27 0.27 0.26 0.25 0.25 0.26 0.27 0.27 0.28 0.28 0.28 0.29 0.29 0.30 0.31 0.32 0.32 0.34 0.35 0.34 0.33 0.32 0.32 0.32 0.33 0.35 0.36 0.37 0.37 0.37 0.39 0.39 0.39 0.40 0.41 0.40 0.40 0.40 0.41 0.41 0.42 0.42 0.41 0.42 0.41 0.41 0.39 0.39 0.40 0.41 0.41 0.42 0.42 0.43 0.44 0.44 0.46 0.46 0.43
0.22 0.19 0.22 0.20 0.17 0.18 0.18 0.21 0.23 0.17 0.17 0.21 0.24 0.27 0.28 0.29 0.28 0.26 0.27 0.26 0.26 0.26 0.27 0.26 0.27 0.29 0.29 0.30 0.29 0.28 0.27 0.27 0.29 0.29 0.28 0.29 0.29 0.29 0.30 0.30 0.31 0.31 0.32 0.34 0.34 0.34 0.34 0.34 0.34 0.34 0.33 0.34 0.35 0.36 0.37 0.37 0.38 0.40 0.41 0.42 0.42 0.42 0.40 0.40 0.40 0.40 0.41 0.41 0.41 0.41 0.40 0.40 0.39 0.40 0.40 0.39 0.39 0.41 0.42 0.44 0.44 0.44 0.42 0.41 0.44 0.45
0.19 0.19 0.19 0.16 0.16 0.16 0.22 0.23 0.25 0.23 0.22 0.23 0.24 0.26 0.27 0.28 0.27 0.25 0.25 0.25 0.26 0.28 0.28 0.28 0.27 0.28 0.28 0.30 0.32 0.30 0.29 0.29 0.30 0.31 0.29 0.30 0.31 0.32 0.33 0.32 0.32 0.32 0.32 0.34 0.34 0.33 0.33 0.33 0.33 0.33 0.32 0.34 0.37 0.37 0.38 0.38 0.40 0.40 0.41 0.41 0.42 0.41 0.41 0.41 0.41 0.41 0.41 0.40 0.39 0.38 0.37 0.37 0.38 0.39 0.40 0.41 0.40 0.40 0.38 0.38 0.40 0.41 0.42 0.43 0.44 0.46
Wind_Speed
7 8 9 10 11 12 12 13 12 11 11 11 9 9 9 8 8 7 7 7 8 9 9 10 10 9 8 9 11 14 12 10 11 10 10 10 10 9 9 10 10 10 11 11 12 12 12 13 12 13 16 17 17 16 15 14 12 11 10 9 9 8 8 7 7 6 6 6 5 4 4 5 5 5 5 4 4 4 5 6 7 8 8 9 9 10
7 8 10 11 12 12 12 11 11 10 10 10 9 9 9 7 8 7 5 5 7 9 9 9 9 10 10 9 10 13 13 13 12 11 11 12 11 10 9 10 10 10 10 11 12 13 13 14 14 14 15 17 17 17 16 15 13 12 11 10 9 8 8 8 7 7 6 6 5 5 4 5 5 5 5 4 4 4 5 5 5 6 7 7 8 9
7 9 11 12 11 10 10 9 9 9 9 10 10 9 9 8 8 8 6 5 6 9 9 9 9 10 11 9 9 12 13 13 14 13 13 13 12 10 10 11 10 10 10 11 12 13 14 14 15 15 16 16 16 16 16 15 14 13 12 11 10 9 8 8 7 7 6 6 5 5 5 5 5 5 5 5 4 4 5 4 4 4 5 6 6 7
8 9 10 11 9 8 10 10 9 9 9 11 11 10 10 10 8 8 8 6 7 9 9 9 9 10 10 8 8 11 13 13 14 14 14 14 13 12 12 12 12 12 11 12 12 13 14 15 15 15 16 16 16 16 16 15 14 13 13 12 11 10 8 8 8 7 6 5 5 5 5 5 6 6 6 6 5 5 4 4 4 4 4 4 5 6
10 10 8 8 8 9 10 10 9 8 9 11 11 12 11 10 10 10 11 9 8 9 9 8 8 10 10 8 8 9 11 12 13 14 15 15 14 13 13 13 13 13 12 13 13 13 13 14 15 15 15 16 16 16 16 15 15 14 14 13 12 11 9 9 8 7 7 6 5 5 5 5 5 6 6 5 5 4 4 4 4 4 4 4 4 5
12 12 10 9 10 10 11 11 10 9 9 10 12 13 13 11 12 11 10 10 9 9 9 8 8 11 11 10 11 10 11 14 15 15 16 15 13 13 13 13 13 13 13 13 13 13 13 13 14 14 15 16 16 17 16 16 16 15 15 14 13 12 11 10 9 9 8 7 7 6 5 5 5 5 6 5 4 4 4 4 4 4 4 4 5 5
11 12 11 11 10 9 10 11 11 10 9 11 12 13 13 11 10 10 9 9 10 10 10 8 8 11 12 12 13 11 11 14 16 16 15 15 14 14 14 13 13 13 13 13 13 13 13 13 13 14 15 16 16 16 16 16 16 16 16 15 14 13 12 11 11 10 10 9 8 7 7 6 5 5 5 5 4 4 4 4 4 4 4 4 5 5
10 10 10 11 10 9 9 10 12 10 9 11 12 11 12 11 10 10 9 9 10 11 11 9 9 11 12 13 13 12 11 13 16 17 16 15 15 15 14 13 13 13 14 13 13 13 13 13 14 14 14 15 15 16 16 17 17 17 17 16 16 15 14 13 13 12 12 11 10 9 8 7 6 5 4 4 4 4 4 4 4 4 4 4 4 4
10 10 10 11 10 10 10 11 12 10 10 13 12 10 12 12 12 11 9 9 10 10 11 11 10 11 12 13 12 11 11 13 16 17 17 17 16 15 15 14 14 13 13 13 13 13 13 13 14 14 14 15 15 16 16 17 17 17 18 17 17 16 15 15 14 14 14 13 11 10 9 8 7 6 5 4 5 5 5 5 4 4 4 4 3 3
10 11 11 10 10 11 11 11 10 10 11 13 11 10 10 10 12 11 10 10 10 9 12 12 11 10 12 12 11 10 11 13 15 15 15 16 17 15 14 14 13 13 13 13 13 13 14 14 14 14 14 14 15 15 15 16 17 18 19 19 19 18 17 16 16 15 15 15 13 12 11 9 8 7 5 5 5 5 5 4 4 4 4 3 3 2
11 11 11 10 10 11 10 11 10 10 11 10 9 9 10 10 11 12 11 11 11 12 13 14 11 10 11 12 12 11 12 13 13 13 13 14 15 15 14 14 13 14 14 14 13 13 13 13 13 13 13 14 14 14 15 16 17 18 20 20 20 20 19 18 18 17 16 16 15 14 12 11 10 8 7 6 6 6 5 4 4 4 4 3 3 2
11 10 11 11 11 10 8 10 11 10 9 8 8 9 10 11 10 11 11 11 12 14 14 14 12 10 11 12 12 13 13 13 13 13 13 14 14 14 14 14 14 15 14 13 13 12 12 13 13 13 13 13 13 14 15 16 18 19 21 22 22 21 20 20 19 18 17 16 15 15 13 12 11 9 8 7 7 6 6 5 5 5 4 4 3 3
11 11 11 11 11 10 9 9 10 10 8 8 8 8 8 9 9 10 11 10 12 13 13 13 11 10 12 13 13 13 13 13 13 13 14 14 13 13 13 14 15 14 13 13 13 13 13 14 13 13 13 13 13 15 16 17 18 20 22 23 23 22 21 21 20 19 17 16 16 15 13 12 11 10 10 8 8 7 7 6 5 5 5 5 4 4
11 11 11 10 11 11 9 9 10 11 10 10 10 9 8 8 8 10 11 10 11 12 12 12 11 11 12 12 12 12 11 11 11 11 11 11 11 11 12 13 14 13 12 12 13 13 14 14 14 14 14 14 15 16 17 17 18 19 19 19 19 19 20 20 20 19 18 17 16 15 13 12 12 11 11 10 9 8 8 7 6 6 5 5 5 4
10 11 11 10 11 10 10 10 10 10 11 12 11 9 9 9 9 10 11 10 11 12 12 11 10 10 10 10 11 9 7 8 9 9 9 9 9 10 10 11 12 12 12 12 12 12 13 13 14 15 15 16 16 16 17 18 18 17 16 15 16 17 18 19 20 20 19 18 18 17 15 14 13 12 12 11 10 10 9 8 7 6 6 5 5 5
10 12 12 11 10 10 10 10 8 7 9 11 10 8 10 12 10 9 10 11 11 10 11 11 10 11 10 10 10 7 6 7 7 7 7 7 8 8 9 9 10 11 11 12 12 12 12 12 12 14 15 16 17 17 17 17 17 15 13 12 15 16 17 19 20 20 20 19 19 19 18 16 15 13 13 12 12 11 10 10 9 7 6 6 5 5
11 12 12 10 8 10 11 10 8 7 8 9 8 8 9 9 9 8 9 9 8 8 11 11 11 12 10 10 10 8 8 10 9 9 9 8 8 7 8 9 9 9 10 11 11 12 12 12 12 13 14 15 16 17 17 17 17 16 13 12 13 15 16 18 19 20 20 20 19 19 18 17 16 15 14 13 12 12 12 11 10 9 8 7 6 5
11 11 11 9 8 9 10 10 8 8 8 7 8 9 8 6 7 8 7 8 6 8 10 9 9 10 10 11 11 8 8 10 10 11 11 10 9 9 9 9 9 8 9 9 10 11 12 12 12 12 12 12 13 15 15 16 17 16 14 13 14 15 16 18 18 19 20 19 19 19 19 18 17 16 15 14 13 13 13 12 11 10 9 9 8 7
11 11 12 11 10 9 9 9 8 8 8 8 9 9 8 8 8 8 7 8 7 8 9 8 8 9 8 10 10 9 10 10 10 10 11 11 10 11 11 11 11 10 10 10 11 11 11 11 10 10 9 10 11 12 13 13 14 14 13 13 13 14 15 17 17 16 17 18 18 18 19 19 18 16 16 16 14 14 14 13 12 12 11 10 10 9
10 11 12 11 11 9 8 8 8 8 8 8 8 9 9 10 10 9 8 8 8 8 9 8 7 8 9 9 9 10 11 11 11 11 11 11 11 11 11 11 11 11 10 11 11 11 11 10 10 9 9 9 9 10 11 11 12 12 12 12 12 12 13 14 15 15 16 16 16 17 18 18 18 17 17 17 16 15 15 15 14 13 13 12 11 11
10 11 13 12 10 9 8 8 7 8 8 8 8 9 10 9 10 9 8 8 7 8 8 7 7 9 10 9 9 11 11 11 11 11 11 11 11 11 11 11 11 10 10 10 10 11 11 10 10 10 9 9 9 9 9 10 10 11 11 11 11 11 12 12 13 14 15 15 15 15 16 17 17 17 18 18 17 17 16 15 15 14 14 13 13 12
11 12 13 12 11 10 10 9 8 9 10 9 9 10 10 10 10 9 9 9 8 8 9 9 9 10 10 9 10 12 12 12 12 12 11 11 11 12 12 11 11 11 10 10 10 10 10 10 10 9 9 9 9 9 9 9 9 10 10 11 11 10 10 11 11 12 13 14 14 14 15 17 17 18 18 18 18 18 17 17 16 15 15 14 14 14
13 11 11 12 13 14 14 11 9 9 10 9 9 9 9 10 10 10 10 11 9 9 9 8 9 11 12 11 12 13 13 12 12 12 12 12 13 13 13 12 11 11 11 11 10 10 10 10 9 9 9 9 9 9 9 9 10 10 10 11 11 11 10 10 10 11 12 12 13 13 14 16 17 18 17 18 19 19 19 19 18 17 16 16 16 15
13 11 11 12 13 14 14 12 10 9 9 8 8 8 8 10 11 11 12 12 10 10 10 9 9 12 12 12 12 12 11 10 11 11 11 12 13 13 13 13 12 12 13 12 11 11 11 10 10 10 10 10 10 10 10 10 10 11 11 12 12 11 11 11 11 12 13 13 13 13 14 15 16 17 18 18 19 19 19 19 19 19 18 18 18 17
13 12 12 11 11 12 13 12 12 12 11 10 10 10 9 9 10 11 12 11 10 11 11 10 10 12 12 11 10 9 9 9 10 11 11 12 13 13 13 13 13 14 14 14 14 13 12 12 12 11 11 10 10 10 10 10 10 11 11 11 11 11 11 11 12 12 13 14 13 13 14 15 16 17 17 18 19 19 19 19 19 20 20 19 19 18
13 13 12 11 11 11 12 12 12 12 12 12 12 12 11 10 10 11 12 11 11 12 11 10 12 12 12 11 10 10 10 10 11 12 12 13 13 14 14 14 14 14 15 16 15 15 14 14 13 13 12 11 11 10 10 10 10 10 11 11 11 11 11 12 12 12 13 14 14 15 15 15 16 17 18 18 18 19 20 20 21 22 22 21 20 19
13 13 13 13 13 14 14 14 13 12 12 13 14 13 12 12 12 11 11 12 12 12 11 12 13 12 11 12 11 11 12 13 13 14 14 14 15 15 15 15 15 15 15 16 16 15 15 14 14 14 13 13 12 12 11 11 11 11 11 11 11 11 12 12 12 13 13 14 15 16 17 17 18 18 19 18 18 19 20 21 22 23 23 22 21 21
13 14 14 14 14 15 15 15 15 14 13 13 14 13 13 13 13 12 12 13 13 12 12 14 13 11 12 14 13 13 14 14 15 15 15 15 15 15 15 15 15 16 16 16 17 16 16 16 15 15 14 14 14 13 13 12 12 12 12 11 12 12 12 13 13 13 13 14 15 16 17 18 18 19 19 19 19 19 20 20 21 22 22 22 22 22
15 15 16 15 15 16 16 15 15 14 14 14 13 14 14 13 12 12 13 14 13 12 14 15 12 12 14 14 14 15 15 15 15 15 15 15 16 16 16 16 16 17 17 18 18 18 18 17 17 17 16 16 15 15 14 14 14 14 14 13 13 13 13 13 13 13 14 14 15 15 16 17 17 18 18 18 19 19 19 19 20 20 20 21 21 21
16 17 17 16 15 16 16 15 15 15 16 16 15 16 16 15 14 14 15 15 13 13 14 14 11 11 14 15 16 16 15 15 15 15 16 16 16 17 18 19 19 19 18 19 19 19 19 19 19 18 18 17 17 16 16 15 16 16 16 15 15 15 15 15 15 15 15 15 16 16 16 17 17 17 17 18 18 18 19 19 19 19 19 20 20 20
17 18 18 16 16 17 17 16 15 16 16 16 17 17 17 17 16 16 17 17 15 15 16 14 12 14 16 17 17 17 16 14 14 15 16 16 17 18 19 20 22 22 21 21 20 20 20 20 20 20 20 19 19 19 18 17 17 17 17 17 17 17 17 17 17 17 17 17 17 17 17 17 18 18 18 19 19 19 19 20 20 20 20 21 21 21
17 18 19 17 17 19 19 17 17 17 17 17 18 18 18 17 17 17 18 18 18 18 17 16 16 18 19 19 18 17 16 16 16 17 17 18 18 19 19 21 23 24 23 22 21 21 21 21 22 22 22 22 22 22 21 20 20 19 19 20 20 19 19 19 19 19 19 18 18 18 18 18 19 19 19 19 19 19 20 20 20 21 21 22 22 23
18 18 19 18 18 20 20 18 18 17 17 18 19 20 19 17 16 17 18 18 18 18 18 19 19 21 21 20 19 18 18 18 18 18 19 19 19 19 20 21 23 24 24 23 23 23 23 23 23 22 22 23 23 23 23 23 22 22 22 22 22 21 21 20 20 20 20 20 20 20 20 20 20 20 20 20 20 21 21 21 21 22 23 23 24 24
18 18 19 19 18 20 21 18 17 17 18 19 20 20 19 17 15 15 17 17 17 17 18 18 19 20 21 20 19 19 19 19 18 18 18 19 18 19 20 20 21 22 23 23 24 24 24 24 23 23 22 23 23 24 24 24 24 24 24 23 23 22 22 22 22 21 21 21 22 22 22 22 22 22 22 22 22 22 22 23 23 23 24 24 24 25
20 19 20 20 18 19 20 17 17 19 20 20 19 18 16 15 14 14 15 16 16 16 17 17 18 19 20 20 20 20 19 18 17 17 17 18 19 19 19 19 20 20 21 22 23 23 24 24 24 24 24 24 24 24 25 25 25 25 24 23 23 23 22 23 23 22 22 22 23 23 23 23 23 24 24 24 24 24 24 24 24 24 25 25 25 25
21 20 20 20 19 19 19 17 18 20 20 19 19 18 16 16 16 15 15 17 18 18 18 18 19 20 19 19 19 20 19 17 17 17 18 19 19 19 19 20 20 21 21 22 22 22 23 23 23 24 24 24 24 24 24 24 24 24 24 24 24 23 23 23 24 24 24 24 24 24 24 24 24 24 24 25 25 25 25 25 26 26 26 26 26 26
21 21 21 21 21 19 19 19 18 18 18 18 18 18 18 18 19 18 17 17 18 19 19 19 19 20 19 19 19 21 21 19 18 20 20 20 20 20 20 20 21 21 21 22 22 23 24 24 24 23 23 23 23 23 24 25 25 24 24 24 24 24 24 24 25 25 25 25 25 25 24 24 24 24 25 25 25 26 26 26 27 27 27 27 27 27
21 22 21 21 21 19 18 18 18 18 20 20 20 20 20 19 19 19 17 18 19 20 19 19 19 20 20 20 20 21 21 20 21 23 23 22 22 21 20 21 21 21 21 21 22 23 24 25 26 26 26 27 27 26 26 26 26 26 26 27 26 26 26 26 26 26 27 27 27 27 26 26 26 26 26 26 27 27 27 27 28 28 28 29 29 29
19 20 20 20 20 20 19 19 19 19 20 21 22 22 22 21 19 18 17 18 20 21 20 19 19 20 20 20 20 20 20 21 23 24 23 23 22 21 21 22 21 21 22 22 23 23 24 26 27 27 28 29 30 30 29 29 28 29 29 30 29 28 27 28 28 28 29 29 29 29 28 28 28 28 28 28 29 29 29 29 29 30 30 30 30 30
16 18 19 19 19 20 19 19 19 19 20 21 22 22 22 21 18 17 18 20 21 21 21 19 19 19 20 20 19 20 20 22 23 24 23 23 22 22 22 22 22 22 23 23 24 24 25 26 27 28 29 30 30 30 31 31 31 30 30 30 30 29 29 29 30 30 31 31 31 30 30 30 30 30 30 30 30 30 30 30 30 30 30 30 31 31
14 15 16 16 17 18 18 18 18 18 19 21 22 22 21 20 17 17 20 22 22 21 20 19 19 20 20 19 20 21 22 22 23 24 23 22 22 23 23 24 24 24 24 24 25 26 26 27 27 29 30 30 30 30 30 31 31 31 31 31 31 32 32 32 32 32 32 32 32 31 31 31 31 31 31 31 32 31 31 31 31 31 31 31 31 31
14 14 15 15 16 16 16 16 16 17 18 20 21 20 19 18 18 20 21 21 21 20 20 19 20 21 21 21 21 22 23 24 24 24 24 24 24 25 25 26 26 27 27 27 27 27 28 28 29 30 31 31 31 32 32 32 33 33 33 33 33 33 33 33 33 33 33 33 32 32 32 32 32 32 32 33 33 33 33 33 33 33 32 32 31 31
14 14 14 15 15 15 15 15 15 16 18 20 20 19 18 18 19 20 20 19 20 20 20 21 21 22 22 23 23 24 25 25 25 26 27 27 27 27 28 28 29 29 30 30 30 30 30 30 31 31 31 32 32 33 33 34 34 34 35 35 35 35 34 34 34 33 33 33 33 33 33 33 33 33 33 33 33 33 33 33 33 32 32 32 32 31
14 14 14 15 16 15 15 15 16 17 17 17 17 17 17 17 18 18 19 20 21 21 22 22 23 24 24 25 25 26 27 27 28 29 29 30 30 30 31 31 31 31 32 32 32 32 32 32 33 32 32 33 34 34 35 35 35 35 35 35 35 35 35 34 33 32 32 32 32 33 33 33 33 34 33 33 33 33 33 33 33 33 32 32 32 32
14 14 14 15 15 15 15 16 16 16 15 15 15 16 17 17 18 18 19 21 22 23 24 24 25 26 26 26 27 28 29 30 31 31 32 32 33 33 34 34 34 34 34 34 34 34 34 34 34 34 34 34 35 35 36 36 36 35 35 35 35 34 34 34 33 32 32 32 33 33 33 33 33 33 34 34 34 34 34 34 34 34 34 34 34 33
14 13 14 14 15 14 14 15 16 16 15 16 17 17 18 19 20 21 21 22 23 25 25 25 26 27 28 28 29 30 31 32 33 34 34 35 35 36 36 37 37 37 37 37 37 37 37 37 36 36 36 35 34 34 35 35 35 35 35 35 35 35 34 34 34 33 33 34 34 34 33 33 34 34 34 35 35 35 35 35 35 35 35 35 34 34
13 13 13 14 15 15 15 17 18 17 16 17 18 19 20 20 21 22 22 23 25 26 26 27 28 29 30 30 31 33 33 34 34 35 35 36 36 37 37 38 38 38 39 39 39 39 39 39 39 38 38 37 36 35 35 35 35 35 35 35 35 35 35 34 34 34 34 34 34 34 34 34 35 35 35 36 36 36 36 35 35 35 34 33 32 32
13 13 12 13 13 14 15 17 18 18 17 17 18 19 20 21 22 22 23 24 25 26 27 28 28 29 30 31 31 32 33 33 34 34 35 35 35 36 36 36 37 37 37 37 37 37 37 38 38 38 38 39 38 37 37 37 36 36 36 36 36 35 35 35 35 35 35 35 35 36 36 35 36 36 36 36 36 36 36 35 34 33 33 32 31 31
13 13 13 13 13 14 15 16 17 17 18 17 17 19 20 21 22 23 24 25 25 26 27 27 28 28 29 30 31 31 32 32 33 33 34 34 34 34 35 35 35 35 35 35 35 35 35 35 36 37 37 38 38 38 38 37 37 36 36 36 35 35 35 35 35 35 35 35 35 35 36 36 36 36 35 35 35 34 34 33 33 33 33 32 32 32
12 12 12 12 12 14 15 16 16 16 18 19 19 20 21 21 21 22 23 24 24 25 26 27 28 28 29 30 30 31 31 32 32 33 33 33 34 34 35 35 35 35 35 35 35 35 35 35 35 36 36 37 37 37 38 37 37 36 36 35 35 34 34 34 34 34 34 34 35 35 35 35 35 35 35 34 34 33 33 33 32 32 33 33 32 32
10 11 11 11 12 14 15 16 16 16 18 20 20 20 21 21 21 22 23 23 24 24 25 26 27 28 29 29 30 30 31 32 32 32 32 33 33 34 34 34 35 35 35 35 36 35 35 35 35 35 35 35 35 35 36 36 36 35 35 34 34 34 34 33 34 34 34 34 34 34 34 34 34 34 34 34 34 34 33 33 32 32 32 31 31 30
Wind_Direction
212 218 224 216 215 217 220 218 221 234 235 229 228 231 240 257 278 280 266 248 212 203 218 211 204 218 234 234 224 216 213 216 217 218 221 222 223 224 224 220 214 213 215 211 207 207 205 204 204 202 204 205 207 211 212 214 219 220 223 229 231 231 234 236 238 244 254 264 275 289 305 322 330 333 330 317 299 286 278 272 266 261 259 255 251 248
216 219 222 215 214 217 222 223 225 236 238 233 232 239 245 254 268 266 250 247 215 200 218 214 201 217 229 232 225 212 213 222 218 217 222 220 221 221 214 209 210 215 216 214 215 215 210 208 211 212 211 209 209 212 215 220 224 226 230 231 226 228 235 239 241 243 253 263 274 287 302 319 332 335 331 323 306 292 290 285 274 265 260 259 258 253
222 220 222 219 216 219 226 230 234 240 242 245 244 240 244 249 259 257 244 242 213 203 222 224 214 229 238 241 231 213 216 224 219 218 222 221 221 222 218 215 217 221 221 220 221 220 216 214 216 217 216 214 212 214 219 223 226 228 231 228 225 229 236 241 241 243 251 261 272 287 301 313 326 331 327 319 309 300 301 295 284 271 256 254 258 255
217 219 224 225 218 219 232 236 237 245 249 250 246 237 238 241 244 247 246 247 232 223 232 235 232 236 238 242 232 219 222 226 225 223 222 221 221 222 223 222 222 221 223 223 221 221 219 218 220 218 217 216 216 219 223 226 226 227 229 228 227 229 234 239 239 242 247 254 269 284 297 312 322 327 325 321 316 311 310 302 287 274 253 249 255 254
224 233 237 235 225 220 231 235 232 241 252 254 245 234 234 237 235 240 244 244 246 246 243 241 247 242 232 235 238 232 229 229 229 227 226 228 227 226 228 229 228 225 224 222 220 222 222 221 222 221 219 219 221 224 226 227 227 227 229 230 229 228 230 234 237 238 240 244 255 267 284 305 319 326 326 324 323 320 317 308 293 278 258 252 254 253
238 246 245 242 235 223 224 233 233 235 248 256 247 232 228 232 236 244 248 243 246 254 249 239 243 246 240 239 245 247 241 236 234 232 231 234 235 233 233 235 235 230 223 218 218 221 223 223 223 222 222 221 223 226 227 228 228 228 230 230 229 228 228 233 237 238 239 241 245 253 266 284 302 316 319 317 319 319 317 311 302 288 270 262 261 259
245 249 237 231 233 224 223 234 238 237 242 252 248 229 222 226 232 239 244 241 240 245 252 246 234 244 249 247 247 245 239 237 240 242 240 238 237 236 236 236 235 228 220 217 217 219 222 223 222 222 221 221 223 226 228 228 228 229 230 229 228 228 231 236 240 240 240 241 244 251 260 274 287 299 307 311 315 317 315 312 306 297 285 276 272 269
247 251 232 221 225 225 229 240 242 240 240 248 247 228 221 226 226 227 231 237 241 244 257 260 240 243 251 247 244 240 235 238 241 243 243 241 238 235 233 232 227 222 217 217 218 219 221 221 219 218 220 223 225 226 227 228 229 230 230 230 229 231 235 239 240 239 240 241 243 247 256 268 278 285 293 302 309 312 313 313 307 300 294 286 280 276
245 241 227 218 224 232 237 242 242 240 242 244 240 229 225 225 222 224 230 239 248 248 254 260 250 245 251 249 247 245 242 244 245 242 240 239 236 231 228 227 225 221 217 217 219 220 223 223 220 220 222 225 226 227 229 230 231 232 231 232 232 233 237 239 238 237 239 242 243 245 250 259 268 274 282 290 299 304 308 312 308 299 295 292 288 282
247 237 227 220 227 237 241 245 242 236 238 240 235 235 238 234 230 232 235 241 251 250 246 253 253 246 252 254 252 250 249 250 250 247 239 232 229 225 223 225 226 222 216 217 219 221 223 223 223 224 225 225 226 228 230 231 233 233 233 233 232 234 237 237 237 237 239 242 245 246 248 252 257 260 268 279 287 293 298 303 302 293 288 288 289 288
254 244 230 226 231 235 240 249 248 233 230 236 238 241 246 248 245 242 242 244 248 250 246 248 250 248 253 254 248 246 251 251 245 240 236 229 224 222 223 228 225 218 218 221 221 222 223 223 224 226 227 227 230 233 233 234 234 234 235 234 233 235 236 235 237 239 242 246 247 247 246 246 247 249 256 267 272 277 281 285 286 282 278 278 279 282
258 246 235 238 239 238 242 254 256 243 232 235 237 235 240 248 251 249 252 249 243 246 247 249 252 250 248 251 249 247 253 253 240 231 231 228 225 225 227 228 222 217 220 222 219 221 223 225 228 231 233 235 237 238 238 237 237 236 237 236 234 234 234 234 236 238 243 247 246 245 244 242 242 246 252 257 261 264 266 269 272 270 268 268 266 267
250 240 241 250 248 242 243 255 260 254 243 236 237 235 236 245 249 247 249 246 240 243 247 252 254 249 247 250 251 252 257 256 244 234 230 225 225 227 227 224 220 219 221 219 218 221 225 228 232 237 241 243 242 241 241 242 241 241 240 236 233 232 232 232 235 238 242 244 241 240 241 240 241 246 250 253 256 256 257 259 260 260 259 258 258 259
246 248 252 257 257 247 237 241 249 249 239 231 235 235 231 236 240 243 245 245 245 245 248 252 251 248 252 252 252 257 257 247 240 233 225 221 221 219 217 218 218 219 219 218 220 224 229 233 237 241 245 246 247 246 246 245 246 246 244 238 235 235 234 232 234 238 242 241 237 237 239 241 243 247 250 251 252 252 252 254 253 254 254 253 255 256
237 247 250 250 254 247 233 231 234 235 232 231 233 231 232 231 230 237 240 239 243 246 250 254 248 242 244 245 247 251 244 231 232 231 220 215 213 207 208 214 217 219 218 219 223 228 234 238 241 244 248 251 252 250 249 248 249 252 251 245 243 244 240 236 236 240 243 240 235 235 240 244 245 249 250 249 250 249 248 249 249 249 251 252 253 254
234 242 248 249 246 236 230 234 233 226 229 236 235 233 241 236 228 236 236 231 235 244 250 250 245 242 236 239 248 241 221 217 219 218 211 210 210 208 214 219 218 218 216 218 224 231 239 244 248 251 253 254 253 251 251 250 252 259 262 254 249 247 242 239 241 243 242 240 238 238 240 242 244 248 249 248 248 246 244 244 245 246 247 248 249 251
234 240 246 248 244 235 229 229 229 218 222 236 235 233 244 236 223 230 240 240 236 241 249 246 244 250 244 242 252 246 229 227 221 212 208 210 212 217 226 224 220 221 222 225 229 236 247 254 259 261 260 256 253 251 251 251 254 262 266 259 252 249 244 243 246 247 243 241 242 239 236 238 243 245 247 247 247 245 241 241 244 245 246 246 248 250
229 236 244 239 242 246 231 219 225 228 224 230 230 230 241 240 230 229 238 252 249 241 249 246 238 244 242 240 244 237 227 231 232 225 217 213 209 210 215 215 216 222 227 231 236 245 254 258 261 263 261 256 253 252 252 253 258 264 267 262 257 254 250 247 247 246 243 241 240 235 232 236 241 243 244 245 246 244 240 240 242 243 245 247 249 251
228 233 243 239 235 244 232 214 229 249 240 228 228 234 236 233 238 242 240 245 246 243 250 251 241 236 237 241 239 232 228 228 230 231 229 226 218 212 213 215 219 224 228 234 243 251 255 255 257 259 259 256 254 254 255 257 261 265 267 267 262 258 254 249 244 242 241 241 239 237 235 238 241 242 242 241 243 244 239 237 239 241 244 247 249 251
231 225 233 238 232 232 230 219 227 248 253 243 240 246 245 235 237 245 244 240 238 240 243 246 247 240 236 236 230 228 230 224 223 229 233 233 227 220 219 221 224 228 232 238 242 246 249 251 254 256 257 258 257 257 257 258 260 263 266 266 264 261 258 251 243 239 240 241 239 238 236 237 239 241 240 239 240 242 239 236 237 240 244 247 250 252
234 225 226 237 234 221 222 224 224 238 249 253 248 244 245 243 241 243 246 244 235 233 234 235 244 245 240 235 228 226 226 220 218 222 226 227 222 219 216 217 224 232 237 239 238 240 245 249 255 258 260 259 257 257 257 257 259 261 264 266 265 263 260 253 246 241 241 240 237 237 235 235 238 240 241 241 240 241 239 237 237 240 243 246 249 251
229 225 223 232 231 221 224 231 236 241 241 244 246 242 237 237 236 235 245 250 240 233 233 232 240 248 244 239 236 232 228 225 222 220 225 226 220 220 220 220 227 234 237 237 236 237 241 246 253 258 261 262 261 258 256 256 257 259 263 266 267 265 260 255 249 243 240 238 236 237 238 237 239 241 242 242 240 239 239 238 239 241 241 243 247 249
224 222 224 230 229 227 230 232 238 248 246 244 246 242 239 240 235 229 237 245 245 244 241 238 244 249 247 245 242 237 233 232 229 225 227 231 228 227 229 230 233 234 233 234 235 238 240 243 249 253 258 262 262 261 259 258 258 258 262 265 266 265 260 254 249 243 241 240 238 240 240 239 240 240 242 242 240 240 241 242 244 244 244 245 249 251
229 227 229 236 238 238 238 236 242 253 251 247 247 245 247 248 241 234 235 238 242 247 245 244 250 250 250 252 247 240 236 236 237 231 229 233 234 232 232 235 235 233 233 236 238 242 243 243 247 251 255 258 260 262 261 260 260 260 262 264 265 263 260 257 254 249 245 245 244 244 242 239 238 239 240 242 243 242 243 245 246 246 247 249 251 253
230 229 229 235 242 245 245 245 250 253 248 243 247 252 255 257 254 248 245 243 246 247 242 241 246 248 251 255 247 242 244 243 242 236 228 229 232 232 234 236 236 235 236 238 241 245 246 246 249 251 254 257 258 260 260 261 262 262 263 264 263 262 261 261 259 254 249 248 249 249 247 244 243 243 243 244 245 246 246 248 249 248 250 251 251 253
227 229 230 228 229 234 237 239 243 248 248 247 251 257 260 261 261 252 248 248 246 246 244 241 242 246 256 260 249 243 244 243 243 239 233 232 232 234 236 236 238 239 239 239 242 245 247 248 251 252 253 255 256 258 260 262 263 264 264 263 262 261 261 260 259 257 253 252 253 253 251 251 252 252 253 253 253 252 252 253 254 254 254 254 254 255
231 234 234 229 228 231 232 236 242 245 248 252 256 261 261 260 258 252 252 252 245 246 251 246 239 240 251 257 251 245 242 240 241 240 236 237 238 239 240 241 242 243 242 241 242 245 248 250 251 252 252 254 256 257 259 262 264 266 266 266 266 265 263 261 261 260 257 256 256 254 254 255 256 256 257 258 259 258 257 256 256 257 256 256 256 259
234 240 239 234 236 237 237 242 248 248 249 255 259 260 258 259 260 257 257 254 249 251 255 250 242 237 242 249 249 249 247 244 246 246 241 239 239 240 242 243 244 245 243 243 243 245 248 250 252 254 255 256 257 257 258 260 262 263 265 268 269 269 269 266 264 263 261 259 259 257 257 258 258 257 258 259 260 261 261 260 259 259 258 258 260 262
236 242 242 240 243 245 246 249 252 251 252 255 257 257 257 257 255 253 254 253 248 248 249 247 243 241 246 254 256 256 254 251 252 255 253 250 250 250 249 246 245 244 244 244 246 248 249 250 253 254 254 255 255 255 258 261 262 263 264 268 270 271 271 268 265 264 264 264 263 261 261 260 259 260 260 261 261 262 262 262 262 262 262 263 264 265
243 245 245 244 246 250 252 253 254 255 255 255 256 255 254 253 252 252 255 256 253 251 250 246 243 244 252 258 260 260 259 257 257 260 262 263 262 259 258 257 254 252 250 248 248 249 250 251 254 255 254 253 252 253 257 260 262 264 265 267 268 268 267 266 264 264 264 265 266 264 263 262 261 262 261 262 263 263 264 265 265 265 266 266 267 266
248 246 247 247 250 255 257 256 255 255 254 257 261 260 257 255 257 258 259 259 257 255 255 252 249 253 258 261 261 261 262 263 264 266 266 267 264 260 260 262 260 257 256 254 251 252 253 254 256 256 255 255 254 253 255 258 261 264 265 265 266 266 266 265 265 265 264 264 265 264 264 263 262 262 262 262 264 264 265 266 266 266 267 267 267 268
250 249 251 251 252 256 258 258 259 258 257 261 265 266 264 260 257 257 258 259 253 248 252 256 254 255 259 262 262 262 264 265 266 266 266 266 265 262 262 263 261 257 254 253 253 254 256 257 257 256 256 256 256 256 256 258 261 263 263 263 263 264 266 267 267 267 265 264 264 264 265 264 262 262 263 263 263 264 265 265 266 266 267 267 268 268
252 251 253 253 254 257 259 258 259 262 263 263 261 262 261 257 253 256 260 262 257 250 250 252 251 253 258 261 261 262 264 264 263 264 264 264 264 263 262 264 263 259 255 254 254 256 258 260 260 258 256 256 257 257 258 260 262 263 263 263 263 263 264 265 266 266 265 265 265 265 265 264 263 264 264 263 264 265 266 266 267 267 268 269 269 269
255 252 253 254 255 257 259 259 261 260 258 256 258 260 257 251 250 255 259 262 263 258 253 251 251 255 260 261 259 258 260 260 261 263 263 262 261 262 262 263 263 260 258 258 258 259 259 259 260 259 259 258 258 259 260 262 263 263 262 263 263 262 262 263 265 265 265 265 266 266 265 265 264 264 264 265 265 266 267 268 268 268 269 270 271 271
254 253 254 256 255 255 258 259 260 257 251 250 256 261 256 249 249 253 257 262 264 261 258 256 256 259 262 262 258 255 256 258 262 267 268 265 263 263 264 265 264 262 261 260 260 260 261 260 260 260 260 260 261 262 262 263 264 263 262 261 261 261 261 262 264 265 265 265 265 265 266 266 266 265 265 265 266 268 269 270 271 271 271 271 272 272
250 252 254 255 255 255 254 254 255 255 253 252 258 260 255 253 255 256 259 264 263 260 258 258 259 261 263 264 260 255 255 259 265 271 273 271 269 269 268 267 266 264 263 262 261 260 262 263 263 262 260 260 262 263 262 262 262 261 260 260 260 261 262 263 265 266 265 265 265 265 265 265 266 265 265 266 266 267 268 270 271 271 272 273 273 273
246 250 252 253 254 252 251 252 254 255 254 255 258 258 255 256 257 253 253 258 261 261 259 257 259 261 262 264 262 257 257 261 267 271 273 272 272 271 270 268 267 265 264 264 262 260 259 259 259 259 259 260 262 264 264 264 262 261 260 259 260 261 262 264 265 266 266 266 265 265 265 265 265 266 266 266 267 268 268 269 270 271 271 272 273 274
245 248 249 250 252 251 250 252 254 253 253 255 257 258 259 259 256 251 251 256 260 263 262 258 259 261 261 263 265 262 261 263 265 268 271 272 271 271 271 271 269 267 266 265 264 261 260 259 257 257 259 260 261 263 264 264 263 262 261 261 262 262 262 263 264 265 265 265 265 265 265 264 265 266 267 268 269 269 270 270 270 270 270 271 272 273
250 249 248 248 251 249 248 250 253 253 254 256 257 261 265 264 258 252 254 258 261 265 266 262 262 264 262 261 264 263 261 261 263 266 270 271 271 271 271 271 270 269 268 267 264 262 261 261 259 260 263 263 261 260 260 262 264 265 264 264 264 263 262 263 263 264 265 265 265 265 265 266 267 268 269 270 271 271 271 271 271 271 272 272 273 273
255 251 248 248 249 249 248 252 256 256 257 257 258 261 265 264 258 252 254 258 261 265 267 264 263 266 265 264 265 263 260 259 261 265 269 269 270 271 271 270 270 270 269 269 267 265 264 263 261 261 264 264 262 261 260 260 262 264 263 263 263 261 261 263 264 265 265 265 266 266 266 267 268 269 269 270 271 271 271 271 272 273 273 273 273 272
255 252 249 247 248 250 250 251 255 257 258 258 259 262 264 262 258 254 253 255 259 264 266 265 265 267 267 268 267 264 264 264 264 266 269 269 270 271 271 271 271 271 270 270 268 268 266 265 263 263 264 264 263 263 261 260 261 261 261 262 262 262 263 264 265 266 266 265 265 265 266 267 268 268 269 269 270 270 271 271 272 272 273 273 272 272
256 254 253 251 250 252 250 249 253 257 258 258 260 265 265 260 256 256 255 257 261 264 266 268 269 269 270 270 269 268 268 269 268 269 270 270 270 269 270 271 272 272 272 271 270 269 268 266 266 266 266 265 264 263 262 263 263 262 262 262 263 264 265 265 265 266 266 265 264 264 265 266 267 268 268 269 269 270 270 271 272 272 273 272 272 272
254 252 253 253 252 251 251 251 251 255 260 262 262 265 266 260 257 258 259 261 265 267 268 270 271 271 272 272 272 271 271 271 271 271 271 270 269 269 269 271 271 272 273 273 272 271 270 268 268 267 266 266 265 264 264 264 264 264 263 262 263 263 265 265 265 265 265 265 264 263 264 265 266 267 268 269 270 270 270 271 271 271 272 272 271 271
257 253 251 253 253 251 252 253 252 254 260 264 263 262 263 263 263 263 264 266 269 270 271 272 272 273 273 272 272 272 272 272 272 272 272 272 271 271 271 271 272 272 272 272 271 271 270 269 268 268 267 267 266 265 264 264 264 263 262 262 262 263 264 264 264 264 265 265 265 264 265 266 267 268 268 269 269 270 270 270 270 270 271 271 271 270
258 255 252 255 255 252 249 250 251 253 259 265 265 264 264 266 268 268 268 270 272 273 273 273 274 274 274 273 273 273 273 273 273 273 273 273 272 272 272 272 272 272 272 271 271 270 270 269 268 268 269 268 267 266 265 263 262 261 260 260 261 262 262 263 263 263 264 265 265 265 265 266 267 267 267 268 268 269 269 270 270 271 271 270 271 270
257 257 256 256 255 253 254 256 257 258 262 268 269 269 270 272 272 272 272 272 272 273 273 274 274 274 274 275 275 274 274 274 274 274 274 273 273 273 273 272 272 272 271 271 271 270 269 269 269 268 268 268 267 266 265 263 260 259 260 260 261 262 262 262 263 264 264 265 265 265 265 266 266 267 267 267 268 269 269 269 270 270 271 270 270 269
260 259 258 257 256 255 257 263 263 261 265 273 276 276 277 277 276 275 274 274 274 274 275 275 275 276 276 277 277 276 276 276 276 276 275 275 274 274 274 273 273 272 272 271 270 269 268 268 268 268 267 266 265 265 265 263 262 261 261 261 262 262 262 262 263 263 264 264 264 265 266 266 267 267 267 268 268 269 269 269 269 269 269 269 268 267
260 259 258 259 262 258 255 261 265 263 266 274 278 278 278 278 277 276 275 275 276 277 278 278 279 279 279 279 279 278 278 278 277 277 276 276 275 275 274 274 274 273 272 271 270 269 268 267 267 266 266 265 264 263 263 263 262 262 262 262 262 262 262 262 263 263 263 263 264 265 266 267 267 268 268 268 268 269 269 268 267 267 267 266 266 265
263 264 261 260 266 266 262 267 271 268 269 276 279 277 276 276 276 278 279 279 280 280 281 281 282 281 281 281 280 279 279 279 278 278 278 277 276 276 275 275 274 273 272 272 271 270 268 267 266 266 265 265 264 263 262 261 261 261 262 262 262 262 262 263 263 263 263 263 263 264 265 266 267 268 268 268 268 268 268 267 266 266 266 266 265 264
268 267 265 264 268 269 267 269 271 269 270 275 280 281 280 279 279 281 282 282 283 283 283 283 283 283 283 283 283 282 281 280 280 279 278 278 277 277 276 276 275 274 273 272 271 270 268 267 267 266 266 265 264 262 261 261 260 261 261 261 261 261 262 262 262 263 263 264 264 265 266 266 267 267 267 267 267 267 266 266 266 266 265 265 265 263
267 266 267 266 265 266 267 269 272 272 273 277 281 283 283 283 284 286 286 285 285 285 285 285 285 285 285 285 285 284 283 282 282 281 280 279 278 278 277 277 276 275 274 272 271 270 269 268 267 266 266 265 264 261 260 260 260 260 260 260 260 261 261 261 262 263 263 264 265 266 266 267 267 267 267 266 266 265 264 264 264 265 265 264 263 261